Zurück zum Katalog

STARLINK-11469

AktivKommunikationVLEO
NORAD 62227·PAYLOAD·🇺🇸 United States

Gestartet Dec 5, 2024 von Vandenberg Space Force Base

Loading…

Nächste Überflüge (nächste 24 Stunden)

TLE

AktuellSource: CelesTrak SupGP

Epoche: Sep 15, 2026, 03:38 UTC

1 62227C 24231K   26258.15187500 -.00085567  00000+0 -70454-3 0  2584
2 62227  53.1576 247.2347 0001190  90.9161 113.7980 15.69762659    10

Verfolge STARLINK-11469 in Echtzeit mit AllMySat

Download on the App Store